Vorticity
5 3 5 3 3 1 16 9 2 4 1 -0 -2 3 7 5 5 1 3 8 4 2 4 -27 29 -2 1 2 6 6 6 1 4 12 9 6 6 7 18 21 42 30 28 -13
6 6 4 5 3 7 0 9 0 2 -2 -1 3 5 0 1 9 4 0 24 10 0 11 8 4 42 7 5 1 5 7 6 5 3 4 4 4 2 3 1 3 4 43 32
5 7 3 5 5 5 2 3 2 1 2 3 1 3 -5 3 6 -1 -0 7 16 12 8 8 3 61 15 1 7 -1 9 3 3 2 2 1 2 4 3 2 2 6 2 5
7 6 4 9 5 6 2 10 -1 -2 4 10 -2 7 3 3 5 7 1 13 8 4 4 1 18 -29 9 4 -14 6 22 8 3 0 3 -0 2 -0 3 5 9 4 4 2
6 8 5 7 12 5 1 8 2 -1 3 4 5 7 3 -1 -11 6 5 5 1 2 9 6 7 12 -8 -2 15 31 16 14 1 6 3 4 13 4 3 9 5 7 5 7
2 3 3 6 10 8 3 11 3 4 4 4 1 1 4 6 13 13 12 8 -4 -0 22 17 8 9 -2 39 54 68 -4 -2 1 13 8 2 2 7 3 3 0 3 11 12
7 5 3 2 8 9 11 9 8 5 8 -4 -3 8 7 12 14 2 5 -4 0 14 12 18 16 14 43 -19 4 42 49 0 16 45 17 42 1 19 9 6 4 5 3 7
6 6 8 8 3 11 7 7 6 -0 2 -0 -8 4 -2 8 0 6 1 3 -2 27 13 10 42 27 46 27 20 3 29 59 46 24 -5 7 30 -1 1 2 1 4 3 5
9 7 7 10 4 12 4 8 11 -1 3 3 -1 11 8 1 2 1 7 -2 30 11 1 2 13 -3 11 2 19 6 6 -1 6 2 4 3 5 3 2 5 0 4 6 3
10 11 12 7 7 9 10 10 5 1 4 7 6 8 3 14 10 9 -5 2 15 1 1 5 2 4 6 5 4 1 4 5 8 4 5 4 3 2 2 2 2 3 5 7
11 12 10 10 7 10 12 6 0 3 5 -9 3 4 6 14 12 7 11 17 5 -9 18 6 7 6 6 6 6 6 5 3 6 5 6 7 8 7 5 4 4 4 4 8
12 10 10 11 10 10 8 9 3 5 1 2 -2 -12 6 -3 10 0 4 9 -2 22 -20 7 7 9 7 5 6 2 2 4 5 5 4 7 8 9 9 8 7 7 4 8
9 11 10 5 5 6 9 1 5 9 1 4 -0 1 0 1 -16 17 6 3 20 14 7 -1 17 10 10 11 5 2 3 2 3 7 8 9 10 9 8 7 9 11 7 10
11 8 10 9 10 10 11 17 10 13 0 12 4 9 13 11 28 6 2 -4 17 2 -0 -0 15 11 7 8 3 3 4 4 6 10 12 10 9 10 11 10 11 11 9 12
14 14 13 12 6 14 9 15 11 10 11 0 13 4 13 25 15 -1 1 8 5 8 -0 3 14 13 7 3 1 2 3 6 11 10 10 8 8 10 12 12 13 12 13 12
5 14 16 13 9 18 8 6 13 10 11 10 10 6 -1 10 2 5 -7 11 8 3 -1 12 7 11 14 11 9 2 8 11 12 11 8 5 12 14 14 14 14 13 10 7
18 16 14 10 14 18 5 15 8 7 7 3 8 16 5 13 6 3 6 -2 15 23 9 13 8 5 5 5 5 11 12 11 11 9 6 11 16 15 14 9 7 7 8 10
11 13 9 10 19 8 17 13 10 2 -2 21 3 12 1 7 7 6 5 -0 22 1 7 12 9 8 8 9 12 11 9 12 6 8 13 16 12 11 7 7 8 10 12 13
12 14 6 6 16 12 15 12 6 7 3 17 7 9 9 8 5 24 14 18 -3 12 17 6 7 10 8 9 8 10 13 6 8 15 15 11 10 8 5 8 12 14 12 12
1 18 12 9 4 15 8 19 15 10 8 1 2 12 2 5 21 4 24 3 7 22 3 5 3 2 -0 4 10 10 12 9 19 13 10 8 7 5 9 16 14 11 14 10
9 3 19 5 8 3 19 3 12 11 8 4 17 12 10 13 23 15 0 9 6 12 11 5 7 9 5 6 11 14 9 15 11 10 8 6 5 12 17 11 13 12 10 6
-3 4 8 9 5 11 6 -1 2 20 35 18 17 9 10 27 8 2 7 1 1 6 6 11 11 11 9 12 13 9 11 12 10 7 6 5 13 15 10 15 10 11 6 8
5 6 -1 5 14 1 4 -3 16 26 17 13 6 -6 23 13 -1 2 -3 -3 13 4 6 8 9 9 12 12 9 10 11 10 8 7 5 11 14 10 16 9 11 7 9 17
10 5 -0 10 -9 8 12 3 -4 -18 13 3 7 15 28 38 3 -3 -7 9 13 1 3 11 12 12 9 9 8 10 11 8 7 6 9 14 10 15 11 12 7 8 16 16
23 6 4 4 -2 13 9 13 19 35 18 12 27 -4 8 -0 -13 3 -11 2 3 4 10 13 16 8 8 8 10 12 10 9 6 8 12 10 13 10 11 7 8 14 17 10
15 28 7 1 5 6 5 21 14 -1 17 -9 3 16 10 -5 1 -5 1 -5 13 8 10 15 16 7 7 10 14 11 10 7 7 11 10 11 9 9 9 9 10 17 14 9
Height
5919 5921 5922 5923 5926 5929 5930 5930 5929 5929 5929 5929 5928 5928 5927 5925 5923 5921 5918 5916 5914 5914 5916 5914 5912 5912 5911 5906 5903 5902 5899 5897 5898 5896 5896 5893 5892 5890 5888 5885 5881 5882 5882 5880
5917 5919 5919 5920 5923 5926 5929 5928 5928 5929 5929 5930 5929 5929 5928 5927 5925 5922 5919 5916 5915 5916 5914 5914 5911 5910 5911 5909 5905 5902 5902 5900 5896 5896 5895 5892 5890 5888 5886 5886 5885 5883 5882 5880
5913 5916 5916 5918 5920 5923 5925 5925 5926 5928 5928 5929 5929 5929 5928 5928 5926 5924 5921 5918 5915 5913 5913 5913 5909 5904 5906 5906 5905 5903 5902 5901 5897 5893 5892 5891 5888 5886 5883 5882 5885 5885 5883 5883
5908 5910 5912 5914 5917 5921 5922 5924 5925 5926 5928 5929 5928 5929 5927 5927 5926 5925 5922 5920 5915 5910 5910 5911 5910 5904 5905 5903 5902 5898 5899 5897 5896 5895 5893 5892 5890 5887 5883 5880 5883 5883 5883 5883
5905 5906 5908 5911 5915 5916 5920 5921 5923 5924 5926 5927 5926 5926 5926 5926 5925 5924 5923 5921 5915 5911 5905 5905 5907 5903 5902 5900 5895 5893 5893 5892 5893 5890 5887 5887 5886 5886 5884 5881 5876 5877 5877 5877
5895 5900 5904 5906 5909 5911 5915 5919 5920 5921 5923 5924 5924 5924 5924 5923 5924 5923 5921 5918 5915 5911 5908 5904 5901 5897 5897 5895 5891 5887 5885 5885 5882 5885 5883 5885 5883 5882 5882 5881 5876 5874 5874 5873
5891 5895 5899 5902 5905 5907 5911 5915 5916 5919 5921 5922 5921 5921 5921 5921 5921 5921 5920 5916 5913 5910 5907 5903 5898 5895 5893 5894 5889 5881 5879 5880 5879 5881 5882 5880 5883 5880 5878 5877 5874 5872 5871 5870
5885 5890 5894 5898 5901 5903 5906 5911 5912 5913 5916 5917 5918 5919 5920 5920 5920 5919 5917 5915 5911 5909 5905 5901 5895 5891 5891 5892 5890 5885 5877 5875 5876 5880 5877 5878 5878 5878 5876 5876 5874 5872 5870 5867
5879 5884 5888 5892 5894 5897 5900 5904 5908 5909 5911 5913 5914 5916 5916 5917 5917 5916 5914 5913 5909 5907 5903 5902 5899 5896 5894 5893 5889 5886 5883 5874 5878 5876 5877 5877 5877 5876 5874 5873 5871 5868 5865 5861
5873 5878 5882 5885 5887 5890 5895 5900 5903 5905 5906 5908 5909 5911 5912 5912 5913 5913 5912 5911 5908 5905 5902 5900 5898 5895 5893 5892 5888 5887 5885 5879 5880 5875 5875 5876 5874 5874 5871 5867 5866 5864 5859 5854
5867 5872 5877 5879 5881 5885 5890 5893 5896 5899 5901 5903 5905 5907 5909 5908 5909 5909 5908 5907 5907 5904 5901 5900 5897 5893 5891 5889 5886 5884 5882 5879 5874 5873 5874 5872 5871 5869 5866 5864 5861 5858 5853 5850
5861 5864 5868 5873 5876 5878 5881 5884 5889 5893 5897 5899 5901 5904 5906 5905 5905 5905 5904 5903 5902 5900 5899 5897 5895 5892 5890 5887 5885 5882 5879 5875 5872 5872 5871 5871 5868 5866 5862 5859 5856 5853 5847 5842
5853 5857 5862 5864 5867 5870 5873 5878 5883 5887 5891 5892 5896 5899 5902 5902 5902 5901 5900 5899 5897 5895 5895 5892 5891 5889 5886 5884 5882 5880 5877 5875 5875 5873 5870 5867 5863 5859 5855 5852 5848 5845 5842 5837
5847 5851 5855 5859 5863 5867 5870 5874 5877 5881 5883 5887 5890 5894 5896 5896 5898 5898 5897 5895 5894 5892 5891 5889 5887 5885 5884 5882 5879 5877 5875 5872 5870 5867 5864 5860 5855 5852 5849 5847 5843 5839 5835 5830
5840 5845 5849 5854 5856 5857 5862 5867 5870 5874 5879 5882 5886 5888 5891 5891 5892 5893 5893 5891 5890 5889 5887 5885 5882 5881 5881 5880 5877 5873 5869 5866 5863 5859 5856 5852 5849 5846 5842 5838 5834 5830 5826 5822
5834 5837 5842 5847 5850 5852 5856 5860 5863 5867 5871 5875 5879 5883 5886 5885 5887 5888 5888 5887 5886 5884 5882 5880 5878 5876 5875 5872 5870 5868 5865 5861 5858 5854 5851 5847 5842 5839 5835 5832 5828 5824 5819 5814
5829 5832 5837 5841 5845 5847 5849 5853 5858 5864 5867 5871 5874 5879 5880 5881 5882 5882 5882 5882 5881 5878 5876 5875 5873 5871 5870 5868 5865 5862 5858 5855 5852 5847 5843 5839 5835 5832 5829 5824 5818 5813 5808 5804
5825 5828 5833 5837 5840 5840 5845 5850 5855 5858 5861 5865 5869 5872 5875 5875 5876 5876 5876 5877 5875 5874 5872 5870 5868 5866 5865 5862 5859 5855 5851 5847 5844 5839 5836 5830 5826 5823 5819 5815 5810 5805 5800 5797
5821 5824 5829 5832 5835 5838 5840 5845 5850 5853 5858 5860 5864 5866 5868 5870 5871 5870 5871 5871 5870 5869 5867 5865 5863 5861 5858 5855 5851 5847 5844 5840 5836 5832 5828 5825 5822 5818 5813 5808 5802 5797 5793 5788
5816 5819 5824 5828 5831 5832 5838 5842 5846 5848 5849 5854 5858 5861 5862 5863 5863 5864 5865 5865 5864 5863 5861 5860 5857 5855 5852 5849 5846 5842 5838 5835 5831 5827 5824 5819 5814 5809 5804 5799 5794 5789 5785 5781
5810 5813 5818 5822 5825 5828 5833 5836 5839 5841 5847 5850 5853 5855 5855 5857 5857 5859 5859 5860 5859 5858 5856 5854 5851 5849 5846 5842 5838 5835 5832 5828 5823 5819 5814 5809 5804 5800 5795 5791 5786 5782 5777 5774
5802 5807 5811 5815 5818 5823 5828 5832 5835 5837 5838 5843 5845 5848 5848 5851 5852 5854 5855 5855 5854 5852 5850 5848 5844 5841 5838 5834 5831 5827 5823 5819 5815 5811 5805 5800 5797 5793 5788 5783 5779 5775 5771 5767
5793 5799 5804 5808 5813 5820 5824 5828 5830 5831 5831 5834 5838 5841 5843 5845 5847 5849 5850 5849 5848 5846 5843 5841 5837 5833 5831 5828 5824 5820 5816 5812 5807 5803 5798 5794 5791 5786 5782 5778 5773 5770 5766 5760
5783 5789 5794 5801 5808 5813 5818 5823 5826 5827 5828 5829 5831 5834 5836 5840 5842 5844 5844 5843 5841 5839 5836 5834 5830 5826 5824 5821 5816 5812 5808 5804 5799 5795 5791 5787 5783 5780 5775 5772 5768 5763 5757 5752
5775 5782 5788 5795 5801 5807 5812 5817 5820 5822 5822 5824 5825 5830 5832 5834 5837 5838 5838 5836 5834 5832 5829 5826 5823 5820 5817 5814 5809 5805 5800 5796 5792 5789 5785 5781 5777 5773 5770 5766 5761 5756 5751 5747
5766 5773 5779 5787 5796 5802 5807 5810 5813 5817 5818 5820 5819 5820 5826 5828 5830 5831 5831 5830 5827 5825 5823 5819 5816 5813 5809 5806 5802 5798 5794 5791 5789 5784 5778 5774 5771 5767 5763 5760 5755 5751 5745 5741